www.pogodaiklimat.ru

Погода и климат >> Архив погоды >> Индия >> Raipur


ПОГОДА в Raipur

  • Прогноз погоды в Raipur
  • Монитор погоды в Raipur
  • Климат города

АРХИВ ПОГОДЫ в Raipur

Время (UTC), дата Ветер
(напр.,м/с)
 
Видим.   Явления Облачность Т
(С)
Тd
(С)
f
(%)
Тe
(С)
Тes
(С)
Комфортность P
(гПа)
Po
(гПа)
Тmin
(С)
Tmax
(С)
R
(мм)
R24
(мм)
S
(см)
03 14.05 В 2 4000 м в посл. час гроза {дождь} 8/3 600 м
[Sc Ac trans Ci sp]
+26.6 +21.8 75 +34 +38 очень
душно
1009.3 1009.0 +26.2 2
06 14.05 Ю 2 4000 м 4/0
[Ac trans Ci fib]
+33.6 +21.5 49 +41 +60 опасность
перегрева
1007.8 1008.0
09 14.05 ЮЗ 3 4000 м ясно +37.8 +17.6 31 +41 +55 опасность
перегрева
1003.7 1004.0
12 14.05 ЮЗ 2 4000 м ясно +38.0 +17.0 29 +41 +42 опасность
перегрева
1001.1 1001.0 +38.5
15 14.05 СЗ 3 4000 м зарница 6/1 750 м
[Cb cap Ac trans]
+30.0 +14.2 38 +32 +32 жарко 1005.3 1005.0
03 15.05 СЗ 1 4000 м 1/0
[Ci fib]
+28.0 +19.0 58 +33 +44 очень
душно
1008.0 1008.0 +23.7 2
06 15.05 З 3 4000 м ясно +33.6 +18.2 40 +38 +58 опасность
солнечного
удара
1006.0 1006.0
09 15.05 З 2 4000 м ясно +36.6 +17.1 32 +40 +56 опасность
солнечного
удара
1002.9 1003.0
12 15.05 ЮЗ 2 4000 м мгла ясно +37.2 +16.7 30 +40 +41 очень
душно
1000.7 1001.0 +37.9
15 15.05 ЮЗ 1 4000 м мгла ясно +33.4 +19.1 43 +39 +39 очень
душно
1002.5 1003.0
21 15.05 штиль 0 60 км 4/0 2000 м
[]
+28.0 +20.4 63 +34 +34 очень
душно
1003.8 1004.0
03 16.05 ЮЗ 2 4000 м 6/4 750 м
[Cu Sc Ac trans Ci fib]
+31.6 +19.8 50 +38 +42 очень
душно
1004.6 1005.0 +27.7
06 16.05 ЮЗ 1 4000 м 9/5 600 м
[Cu Sc Ac trans]
+35.6 +19.3 38 +40 +47 очень
душно
1003.9 1004.0
09 16.05 ЮЗ 2 4000 м мгла {ливн. осадки} 5/3 750 м
[Cu Sc Ac trans]
+38.4 +18.0 30 +42 +50 опасность
перегрева
1001.4 1001.0 0.0
12 16.05 СЗ 5 2000 м гроза, ливневой дождь 9/5 600 м
[Cb cap Ac trans]
+35.0 +12.9 26 +35 +35 очень
жарко
1001.0 1001.0 +39.5 0.0
15 16.05 штиль 0 4000 м мгла {гроза, дождь} 6/3 750 м
[Sc Ac trans]
+31.2 +15.4 38 +34 +34 душно 1001.3 1001.0 0.8
00 17.05 0 н/о +28.0 +24.6 82 1004.5
03 17.05 нст 1 4000 м мгла 4/1 750 м
[Sc Ac trans Ci fib]
+31.6 +20.2 51 +38 +46 очень
душно
1004.6 1005.0 +26.6 0.8
06 17.05 З 3 4000 м ясно +38.2 +18.6 32 +42 +62 опасность
перегрева
1003.0 1003.0
09 17.05 З 2 4000 м 1/1 750 м
[Cu hum Ci fib]
+40.8 +15.1 22 +42 +56 опасность
перегрева
1000.3 1000.0
12 17.05 Ю 2 4000 м гроза без осадков {дождь} 9/5 600 м
[Cb cap As trans Ci sp]
+29.8 +20.1 56 +36 +37 очень
душно
1000.2 1000.0 +41.9 7
15 17.05 штиль 0 4000 м 4/0
[Ac trans Ci fib]
+30.0 +19.3 53 +36 +36 очень
душно
1002.1 1002.0 7
03 18.05 Ю 2 4000 м 3/0
[Ac trans Ci fib]
+31.4 +21.3 55 +39 +48 очень
душно
1004.6 1005.0 +26.7 7
06 18.05 ЮЗ 4 4000 м 3/1 750 м
[Cu hum Ac trans Ci fib]
+37.0 +19.3 36 +42 +54 опасность
перегрева
1003.0 1003.0
09 18.05 ЮЗ 2 4000 м ясно +39.4 +17.4 28 +42 +59 опасность
перегрева
1000.0 1000.0
12 18.05 ЮЗ 3 4000 м ясно +40.2 +14.6 22 +41 +42 опасность
перегрева
997.6 998.0 +40.6
15 18.05 ЮЗ 2 4000 м ясно +35.0 +16.9 34 +38 +38 очень
душно
999.4 999.0
03 19.05 Ю 2 4000 м ясно +33.6 +20.8 47 +41 +50 опасность
перегрева
1003.0 1003.0 +29.6
06 19.05 Ю 1 4000 м ясно +38.4 +18.0 30 +42 +67 опасность
перегрева
1001.4 1001.0
09 19.05 штиль 0 4000 м 1/1 750 м
[Cu hum]
+41.6 +14.9 21 +42 +61 опасность
перегрева
998.9 999.0
12 19.05 штиль 0 4000 м 1/1 750 м
[Cu hum]
+41.8 +13.3 19 +42 +44 опасность
перегрева
997.1 997.0 +42.8
15 19.05 штиль 0 4000 м 1/0
[Ac trans]
+36.4 +17.7 33 +40 +40 очень
душно
998.6 999.0
00 20.05 В 1 4000 м пыльная буря на расстоянии 9/6 600 м
[Sc diur, vesp Ac trans Ci sp]
+29.0 +26.2 85 +44 +44 опасность
перегрева
1006.6 1007.0
03 20.05 ЮЗ 3 4000 м 1/1 750 м
[Sc Ac trans]
+34.0 +22.0 50 +43 +50 опасность
перегрева
1003.5 1004.0 +30.8
06 20.05 З 3 4000 м ясно +37.8 +18.8 33 +42 +60 опасность
перегрева
1002.5 1003.0
09 20.05 Ю 2 4000 м ясно +41.6 +18.1 26 +45 +61 опасность
перегрева
999.3 999.0
12 20.05 ЮЗ 3 4000 м 8/3 900 м
[Cu med, cong Ac trans]
+41.0 +15.4 22 +42 +42 опасность
перегрева
997.3 997.0 +42.5
15 20.05 штиль 0 4000 м 9/4 750 м
[Sc Ac trans Ci fib]
+38.6 +17.9 30 +42 +42 опасность
перегрева
999.5 1000.0

 

Местоположение метеостанции Raipur (Chhattisgarh, Индия): широта 21.23 долгота 81.65 высота над уровнем моря 298 м.

В архиве по умолчанию представлена погода в Raipur за последнюю неделю. Архивные данные за месяц целиком и за предыдущие месяцы, начиная с января 2011 года, Вы можете получить, выбрав интересующий диапазон дат из раскрывающегося списка и нажав кнопку "Ввод!".


*Определитесь, кто Вы:
робот инопланетянин человек

Внимание! Время в таблицах - всемирное. Для получения местного времени необходимо прибавить поправку, которая в Raipur равна 5.5 ч.

Смотрите также архив погоды в соседних городах и на ближайших метеорологических станциях:

Погода в Durg (Chhattisgarh, Индия) (39 км)
Погода в Rajnandgaon (Chhattisgarh, Индия) (66 км)
Погода в Bilaspur (Chhattisgarh, Индия) (111 км)
Погода в Raipur Airport (Chhattisgarh, Индия) (111 км)
Погода в Malanjkhand (Madhya Pradesh, Индия) (130 км)
Погода в Gondia (Maharashtra, Индия) (153 км)
Погода в Pendra Road (Chhattisgarh, Индия) (173 км)
Погода в Bramhapuri (Maharashtra, Индия) (200 км)
Погода в Mandla (Madhya Pradesh, Индия) (200 км)
Погода в Titlagarh (Orissa, Индия) (200 км)

Пояснения к столбцам:

Ветер - указаны скорость ветра в м/с - средняя за 10 мин, порывы в срок и между сроками (в фигурных скобках) и направление, откуда дует ветер: С - северный, СВ - северо-восточный, В - восточный, ЮВ - юго-восточный, Ю - южный, ЮЗ - юго-западный, З - западный, СЗ - северо-западный.
Видимость - горизонтальная дальность видимости в метрах или километрах. При видимости от 1 до 10 км при отсутствии осадков обычно наблюдается дымка, при ухудшении видимости до 1 км и менее - туман. В сухую погоду видимость может ухудшаться дымом, пылью или мглою.
Явления - указаны атмосферные явления, наблюдавшиеся в срок или в последний час перед сроком; фигурными скобками обозначены явления, наблюдавшиеся между сроками (за 1-3 часа до срока); квадратными скобками обозначены град или гололедные отложения с указанием их диаметра в мм.
Облачность - указаны через наклонную черту общая и нижняя облачность в баллах и высота нижней границы облаков в метрах; квадратными скобками обозначены формы облаков: Ci - перистые, Cs - перисто-слоистые, Cc - перисто-кучевые, Ac - высококучевые, As - высокослоистые, Sc - слоисто-кучевые, Ns - слоисто-дождевые, Cu - кучевые, Cb - кучево-дождевые. Подробнее классификацию облаков см. в Атласе облаков (PDF).
T - Температура воздуха - температура, измеренная на высоте 2 м над землей.
Td - Температура точки росы - температура, при понижении до которой содержащийся в воздухе водяной пар достигнет насыщения.
f - Относительная влажность воздуха - влажноcть воздуха, измеренная на высоте 2 м над землей.
Te - Эффективная температура - температура, которую ощущает одетый по сезону человек в тени. Характеристика душности погоды. При расчете учитывается влияние влажности воздуха и скорости ветра на теплоощущения человека.
Tes - Эффективная температура на солнце - температура, которую ощущает человек, с поправкой на солнечный нагрев. Характеристика знойности погоды. Зависит от высоты солнца над горизонтом, облачности и скорости ветра. Ночью, в пасмурную погоду, а также при ветре 12 м/с и более поправка равна нулю.
P - Атмосферное давление - приведенное к уровню моря атмосферное давление.
Po - Атмосферное давление - измеренное на уровне метеостанции атмосферное давление.
Tmin - Минимальная температура - минимум температуры воздуха на высоте 2 м над землей.
Tmax - Максимальная температура - максимум температуры воздуха на высоте 2 м над землей.
R - Количество осадков - Количество выпавших осадков за период времени, мм. При наведении курсора мыши на число - период времени, за который выпало указанное количество осадков.
R24 - Количество осадков - Количество выпавших осадков за 24 часа, мм.
S - Снежный покров - Высота снежного покрова, см. При наведении курсора мыши на число - состояние снежного покрова и степень покрытия местности в баллах.